[[{"header":{"parameterUnit":"m.s-1","parameterCategory":2,"la1":30.2991,"la2":30.254,"lo1":-89.0895,"lo2":-89.0444,"dy":0.0017,"dx":0.0017,"nx":28,"ny":28,"refTime":"2024-05-31T09:00:00:Z","depth":"0","parameterNumber":2,"parameterNumberName":"U-component_of_CURRENTS"},"data":[0,0,0,0,0,0,0,0,0,0,0,0,0,0,0,0,0,0,0,0,0,0,0,0,0,0,0,0,0,0,0,0,0,0,0,0,0,0,0,0,0,0,0,0,0,0,0,0,0,0,0,0,0,0,0,0,0,0,0.132,0.132,0,0.1331,0.1331,0.1331,0.1337,0.1337,0.1337,0.1337,0.1325,0.1324,0.1324,0,0,0,0,0,0,0,0,0,0,0,0,0,0.1302,0.1302,0.132,0.132,0.132,0.1331,0.1331,0.1331,0.1337,0.1337,0.1337,0.1337,0.1325,0.1324,0.1324,0,0,0,0,0,0,0,0,0,0,0,0,0,0.1309,0.1302,0.132,0.1325,0.1326,0.1331,0.1331,0.1331,0.1337,0.1337,0.1337,0.1337,0.1325,0.1325,0.1324,0.1316,0,0,0.1322,0.1322,0,0,0,0,0,0,0,0,0.1309,0.131,0.1324,0.1325,0.1326,0.1334,0.132,0.1325,0.1337,0.1331,0.1337,0.1337,0.1326,0.1326,0.1326,0.1315,0.1315,0.1322,0.1321,0.1321,0.1321,0,0,0,0,0,0,0,0.1308,0.131,0.1323,0.1325,0.1326,0.1327,0.1328,0.1321,0.1326,0.1332,0.1333,0.1336,0.1326,0.1326,0.1325,0.1314,0.1322,0.1321,0.1321,0.132,0.1329,0.133,0,0,0,0,0,0,0.131,0.1309,0.1322,0.1323,0.1319,0.1327,0.1328,0.133,0.1327,0.1327,0.1336,0.1336,0.1327,0.1326,0.1325,0.135,0.1321,0.132,0.132,0.1328,0.1329,0.133,0,0,0,0,0,0,0.1309,0.1311,0.1322,0.1317,0.1319,0.1327,0.1329,0.133,0.1336,0.133,0.133,0.1341,0.1328,0.1326,0.1334,0.1348,0.132,0.132,0.1328,0.1329,0.133,0.1377,0,0,0,0,0,0,0.1309,0.131,0.1312,0.1318,0.132,0.1334,0.1329,0.133,0.1338,0.1338,0.1334,0.1333,0.1328,0.1335,0.1334,0.1347,0.1319,0.1327,0.1328,0.1329,0.1375,0.1379,0.1383,0,0,0,0,0,0.1308,0.131,0.1312,0.1314,0.1321,0.1334,0.1335,0.1341,0.1338,0.1345,0.1347,0.1334,0.1341,0.1336,0.1333,0.1346,0.1326,0.1328,0.1329,0.1372,0.1378,0.1383,0,0,0,0,0,0,0.1303,0.1312,0.1313,0.1318,0.133,0.1336,0.1341,0.1343,0.1349,0.1349,0.1342,0.1341,0.1353,0.1342,0.1336,0.1352,0.1331,0.1332,0.1365,0.137,0.1375,0.1369,0.1318,0,0,0,0,0,0.1303,0.1306,0.1318,0.1322,0.1328,0.1334,0.1339,0.1345,0.1351,0.1354,0.1352,0.1351,0.1355,0.1358,0.1356,0.1364,0.1376,0.137,0.1375,0.1379,0.1373,0.1418,0.1427,0.1335,0.1335,0.1335,0,0,0.13,0.1307,0.1308,0.1321,0.1328,0.134,0.1338,0.135,0.136,0.135,0.1362,0.1364,0.1361,0.1375,0.1378,0.1369,0.1415,0.1381,0.1384,0.1375,0.1421,0.143,0.1438,0.1336,0.1335,0.1335,0,0,0.1299,0.1306,0.131,0.1323,0.1338,0.1346,0.1351,0.1363,0.137,0.1382,0.1382,0.1394,0.1394,0.1402,0.1404,0.1429,0.1436,0.1428,0.1448,0.1494,0.1502,0.1509,0.1553,0.1564,0.1432,0.1432,0.1432,0,0.1296,0.1304,0.1314,0.1326,0.1336,0.1349,0.136,0.1372,0.1386,0.1392,0.1391,0.1408,0.1406,0.143,0.1442,0.1439,0.1468,0.143,0.1501,0.1508,0.1515,0.1558,0.1569,0.1435,0.1435,0.1434,0.1434,0,0.1302,0.131,0.1316,0.1335,0.1349,0.1361,0.1382,0.1396,0.1404,0.1414,0.1437,0.1445,0.1455,0.1462,0.1459,0.1504,0.1511,0.1503,0.149,0.1527,0.157,0.1581,0.1438,0.1437,0.1437,0.1436,0,0,0.1283,0.1312,0.1314,0.1323,0.1354,0.1363,0.139,0.1412,0.1427,0.1447,0.1469,0.1487,0.1493,0.1495,0.1502,0.154,0.1618,0.1544,0.1546,0.1592,0.173,0.1735,0.1747,0.1633,0.1634,0.1636,0.1747,0,0.1282,0.13,0.1318,0.1337,0.1348,0.1374,0.1394,0.1419,0.1441,0.1468,0.149,0.1511,0.1507,0.1519,0.1559,0.1596,0.1647,0.1589,0.1681,0.1683,0.1688,0.1759,0.1755,0.1853,0.1757,0.1759,0.176,0,0.1279,0.1292,0.1305,0.1334,0.1341,0.1355,0.1389,0.1412,0.1457,0.1476,0.151,0.1528,0.1579,0.1573,0.167,0.1638,0.1688,0.1721,0.1727,0.1717,0.1708,0.1797,0.1877,0.1854,0.1777,0.1776,0.1775,0,0.1251,0.1281,0.1288,0.1299,0.1335,0.1345,0.1366,0.1407,0.143,0.1485,0.1513,0.1567,0.1605,0.167,0.1733,0.1715,0.1847,0.1829,0.1883,0.1884,0.1888,0.1886,0.1957,0.1912,0.1912,0.1911,0.1911,0,0.1239,0.1243,0.1273,0.1277,0.1288,0.1322,0.1342,0.1374,0.1425,0.1461,0.1514,0.1564,0.1635,0.1711,0.1761,0.1862,0.1876,0.1903,0.192,0.1905,0.1904,0.1887,0.1848,0.1915,0.1914,0.1914,0.1913,0,0.1202,0.1224,0.1231,0.1263,0.1272,0.1278,0.1322,0.1342,0.1399,0.1454,0.1477,0.1578,0.1691,0.1762,0.1878,0.1904,0.1951,0.202,0.1996,0.2008,0.2017,0.1981,0.1949,0.188,0.2102,0.2103,0.2104,0,0.1183,0.1183,0.1209,0.1212,0.1223,0.1242,0.1258,0.1316,0.1351,0.1468,0.15,0.1624,0.1725,0.1896,0.1975,0.2083,0.2004,0.2118,0.2073,0.2035,0.2007,0.1883,0.1817,0.2109,0.211,0.211,0.2111,0,0.1144,0.1151,0.1158,0.1168,0.118,0.1198,0.1234,0.1258,0.1344,0.1414,0.1532,0.1626,0.1815,0.1942,0.2073,0.2127,0.2025,0.2133,0.211,0.2035,0.1889,0.1825,0.2012,0.2116,0.2115,0.2115,0.2115,0.2114,0.1107,0.1103,0.1115,0.112,0.1135,0.1154,0.1166,0.123,0.1297,0.1411,0.1521,0.1671,0.1882,0.2085,0.2108,0.217,0.2082,0.2158,0.2126,0.201,0.1908,0.2101,0.2205,0.2205,0.2205,0.2205,0.2205,0,0.1061,0.1066,0.1069,0.108,0.1083,0.1107,0.115,0.1174,0.1252,0.1405,0.1524,0.1772,0.1941,0.2079,0.2243,0.2199,0.2055,0.2137,0.1977,0.1916,0.2139,0.2106,0.2172,0.2172,0.2172,0.2172,0.2172,0.2172,0.1037,0.1025,0.103,0.1023,0.1035,0.1039,0.1058,0.1113,0.1218,0.1394,0.1558,0.1699,0.1987,0.2217,0.2275,0.2213,0.2013,0.194,0.1859,0.2058,0.2057,0.2055,0.2017,0.2064,0.2064,0.1587,0.1584,0.1581]},{"header":{"parameterUnit":"m.s-1","parameterCategory":2,"la1":30.2991,"la2":30.254,"lo1":-89.0895,"lo2":-89.0444,"dy":0.0017,"dx":0.0017,"nx":28,"ny":28,"refTime":"2024-05-31T09:00:00:Z","depth":"0","parameterNumber":3,"parameterNumberName":"V-component_of_CURRENTS"},"data":[0,0,0,0,0,0,0,0,0,0,0,0,0,0,0,0,0,0,0,0,0,0,0,0,0,0,0,0,0,0,0,0,0,0,0,0,0,0,0,0,0,0,0,0,0,0,0,0,0,0,0,0,0,0,0,0,0,0,-0.0041,-0.0042,0,-0.0104,-0.0105,-0.0106,-0.0143,-0.0143,-0.0143,-0.0144,-0.0235,-0.0237,-0.0239,0,0,0,0,0,0,0,0,0,0,0,0,0,0.0017,0.0016,-0.0041,-0.0042,-0.0043,-0.0104,-0.0105,-0.0106,-0.0143,-0.0143,-0.0143,-0.0144,-0.0234,-0.0237,-0.0239,0,0,0,0,0,0,0,0,0,0,0,0,0,-0.0024,0.0016,-0.0041,-0.0068,-0.0071,-0.0104,-0.0105,-0.0106,-0.0143,-0.0143,-0.0143,-0.0144,-0.0233,-0.0236,-0.024,-0.0258,0,0,-0.025,-0.0252,0,0,0,0,0,0,0,0,-0.0022,-0.0026,-0.0063,-0.0066,-0.007,-0.0116,-0.0118,-0.0158,-0.0143,-0.0116,-0.0144,-0.0144,-0.0197,-0.0203,-0.0215,-0.0262,-0.0266,-0.0251,-0.0253,-0.0254,-0.0255,0,0,0,0,0,0,0,-0.0019,-0.0024,-0.0067,-0.0064,-0.0068,-0.0088,-0.0094,-0.0126,-0.0156,-0.0119,-0.0121,-0.0128,-0.0199,-0.0212,-0.0218,-0.0267,-0.0251,-0.0254,-0.0256,-0.0257,-0.0341,-0.0341,0,0,0,0,0,0,-0.0008,-0.0021,-0.0065,-0.0068,-0.0045,-0.0089,-0.0095,-0.0101,-0.0155,-0.0163,-0.0128,-0.0129,-0.0206,-0.0214,-0.0221,-0.0243,-0.0254,-0.0257,-0.0259,-0.0341,-0.0341,-0.0341,0,0,0,0,0,0,-0.0007,-0.0012,-0.0062,-0.0046,-0.0054,-0.0089,-0.0096,-0.0102,-0.0116,-0.0161,-0.017,-0.0134,-0.0206,-0.0216,-0.0254,-0.0247,-0.0259,-0.0262,-0.0341,-0.0341,-0.0341,-0.0289,0,0,0,0,0,0,-0.0005,-0.0011,-0.0012,-0.0045,-0.0054,-0.0077,-0.0096,-0.0103,-0.0119,-0.0122,-0.017,-0.0179,-0.0207,-0.0248,-0.0257,-0.0252,-0.0265,-0.0341,-0.0341,-0.0341,-0.029,-0.0287,-0.0284,0,0,0,0,0,-0.0003,-0.0003,-0.0011,-0.0017,-0.0054,-0.0077,-0.0084,-0.011,-0.0119,-0.0123,-0.016,-0.0177,-0.0256,-0.0252,-0.0262,-0.0257,-0.0341,-0.0341,-0.0341,-0.0291,-0.0288,-0.0284,0,0,0,0,0,0,0.0021,-0.0007,-0.0018,-0.0026,-0.0048,-0.0083,-0.009,-0.0107,-0.0138,-0.0142,-0.0184,-0.0196,-0.0225,-0.0251,-0.0245,-0.0283,-0.0299,-0.0302,-0.0258,-0.0255,-0.0252,-0.0222,-0.0268,0,0,0,0,0,0.0027,0.002,-0.001,-0.0016,-0.0025,-0.0056,-0.0069,-0.0086,-0.0117,-0.0131,-0.0164,-0.0201,-0.0234,-0.0252,-0.0286,-0.0309,-0.0317,-0.0312,-0.0309,-0.0306,-0.029,-0.03,-0.0295,-0.0343,-0.0343,-0.0343,0,0,0.0033,0.0018,0.0013,-0.0011,-0.003,-0.0038,-0.0064,-0.008,-0.0085,-0.0136,-0.0156,-0.0194,-0.0239,-0.0265,-0.0279,-0.0286,-0.0299,-0.0307,-0.0304,-0.0289,-0.0299,-0.0295,-0.029,-0.0343,-0.0343,-0.0343,0,0,0.0048,0.0031,0.0032,0.0018,-0.0005,-0.0024,-0.0025,-0.0058,-0.0071,-0.0097,-0.0134,-0.0165,-0.0217,-0.0244,-0.0266,-0.0268,-0.0284,-0.0281,-0.024,-0.025,-0.0246,-0.0242,-0.0246,-0.0243,-0.0277,-0.0277,-0.0277,0,0.0059,0.0055,0.0029,0.0027,0.0021,-0.0013,-0.001,-0.003,-0.007,-0.0076,-0.0095,-0.0161,-0.0203,-0.0228,-0.023,-0.0259,-0.0264,-0.0248,-0.0244,-0.024,-0.0237,-0.0243,-0.024,-0.0275,-0.0275,-0.0275,-0.0275,0,0.0072,0.0071,0.0071,0.006,0.005,0.0046,0.002,0.0009,-0.0011,-0.003,-0.0057,-0.0113,-0.0148,-0.0169,-0.0202,-0.0204,-0.0214,-0.0239,-0.0246,-0.0229,-0.0236,-0.0234,-0.0271,-0.0272,-0.0273,-0.0273,0,0,0.0095,0.0084,0.0084,0.009,0.0069,0.0064,0.006,0.0048,0.0053,0.0013,0.0016,-0.0045,-0.0069,-0.0095,-0.014,-0.015,-0.0143,-0.0178,-0.018,-0.017,-0.0155,-0.0188,-0.019,-0.0163,-0.0163,-0.0162,-0.0169,0,0.0116,0.0128,0.0114,0.0128,0.0134,0.0111,0.0112,0.0098,0.008,0.0072,0.0026,0.0003,-0.0044,-0.0061,-0.0077,-0.0131,-0.0135,-0.0138,-0.0184,-0.0185,-0.0206,-0.0188,-0.0169,-0.0176,-0.0167,-0.0167,-0.0166,0,0.0134,0.0142,0.016,0.0171,0.0172,0.0174,0.0179,0.0175,0.0155,0.0142,0.0118,0.0081,0.005,0.001,-0.0045,-0.0044,-0.0086,-0.0123,-0.0125,-0.0169,-0.0214,-0.0193,-0.0173,-0.0288,-0.0164,-0.0164,-0.0164,0,0.0164,0.0176,0.0195,0.0196,0.0198,0.0206,0.0206,0.0196,0.0203,0.0185,0.0188,0.0146,0.0121,0.0072,-0.0016,-0.0024,-0.0073,-0.0098,-0.0162,-0.0165,-0.0164,-0.0168,-0.0247,-0.0118,-0.0118,-0.0118,-0.0118,0,0.0191,0.0207,0.021,0.022,0.0249,0.0238,0.0263,0.0257,0.0257,0.0276,0.0225,0.0228,0.0137,0.0089,0.0017,-0.0069,-0.0049,-0.0141,-0.0165,-0.0147,-0.015,-0.0263,-0.0334,-0.0118,-0.0118,-0.0118,-0.0118,0,0.0215,0.0216,0.0241,0.0254,0.0261,0.0279,0.0298,0.0315,0.0309,0.0333,0.0332,0.0292,0.0235,0.0138,0.0049,-0.0032,-0.0177,-0.0145,-0.0118,-0.0139,-0.0305,-0.0373,-0.0477,-0.0538,-0.02,-0.0201,-0.0201,0,0.0228,0.0242,0.0266,0.0283,0.0289,0.0312,0.0331,0.0336,0.0357,0.0375,0.039,0.0348,0.0336,0.0184,0.0036,-0.0088,-0.0202,-0.0173,-0.0188,-0.0303,-0.0396,-0.0451,-0.0498,-0.0163,-0.0163,-0.0164,-0.0164,0,0.0254,0.0259,0.0278,0.0312,0.0335,0.0367,0.0394,0.0423,0.0439,0.0476,0.0512,0.0514,0.037,0.025,0.0051,-0.0046,-0.0263,-0.0183,-0.0304,-0.0372,-0.0433,-0.0506,-0.0173,-0.0166,-0.0166,-0.0166,-0.0166,-0.0165,0.0271,0.0289,0.031,0.0343,0.0373,0.0415,0.0453,0.0501,0.0563,0.0647,0.0627,0.0683,0.0473,0.0215,0.0029,-0.0282,-0.0291,-0.0357,-0.0427,-0.0469,-0.0541,-0.0218,-0.0246,-0.0246,-0.0246,-0.0246,-0.0246,0,0.0291,0.0308,0.034,0.0379,0.0415,0.0428,0.0493,0.0552,0.0649,0.0759,0.0824,0.0802,0.0521,0.0225,-0.0199,-0.0457,-0.0558,-0.0606,-0.0669,-0.0703,-0.0405,-0.0418,-0.0483,-0.0483,-0.0483,-0.0483,-0.0483,-0.0483,0.0302,0.033,0.0344,0.0402,0.0436,0.0499,0.0544,0.0655,0.0757,0.0934,0.1032,0.1079,0.0895,0.0037,-0.0555,-0.0706,-0.0887,-0.0939,-0.105,-0.0839,-0.082,-0.0803,-0.0832,-0.0983,-0.0983,-0.1301,-0.1304,-0.1307]}],[{"header":{"parameterUnit":"m.s-1","parameterCategory":2,"la1":30.2991,"la2":30.254,"lo1":-89.0895,"lo2":-89.0444,"dy":0.0017,"dx":0.0017,"nx":28,"ny":28,"refTime":"2024-05-31T09:00:00:Z","depth":"2","parameterNumber":2,"parameterNumberName":"U-component_of_CURRENTS"},"data":[0,0,0,0,0,0,0,0,0,0,0,0,0,0,0,0,0,0,0,0,0,0,0,0,0,0,0,0,0,0,0,0,0,0,0,0,0,0,0,0,0,0,0,0,0,0,0,0,0,0,0,0,0,0,0,0,0,0,0.1338,0.1338,0,0.1352,0.1352,0.1352,0.136,0.136,0.136,0.136,0.1354,0.1354,0.1353,0,0,0,0,0,0,0,0,0,0,0,0,0,0.1318,0.1318,0.1338,0.1338,0.1338,0.1352,0.1352,0.1352,0.136,0.136,0.136,0.136,0.1354,0.1354,0.1353,0,0,0,0,0,0,0,0,0,0,0,0,0,0.1328,0.1318,0.1338,0.1345,0.1346,0.1352,0.1352,0.1352,0.136,0.136,0.136,0.1361,0.1354,0.1354,0.1353,0.1347,0,0,0.1352,0.1352,0,0,0,0,0,0,0,0,0.1327,0.1328,0.1343,0.1344,0.1345,0.1355,0.1343,0.135,0.136,0.1353,0.136,0.1361,0.1353,0.1353,0.1354,0.1346,0.1346,0.1352,0.1352,0.1351,0.1351,0,0,0,0,0,0,0,0.1326,0.1328,0.1342,0.1344,0.1345,0.1347,0.1349,0.1344,0.1351,0.1354,0.1355,0.1358,0.1353,0.1354,0.1353,0.1346,0.1352,0.1351,0.1351,0.1351,0.1365,0.1366,0,0,0,0,0,0,0.1327,0.1327,0.1342,0.1343,0.1338,0.1348,0.1349,0.1351,0.1351,0.1352,0.1358,0.1358,0.1355,0.1354,0.1353,0.138,0.1351,0.1351,0.1351,0.1365,0.1365,0.1366,0,0,0,0,0,0,0.1326,0.1328,0.1341,0.1336,0.1338,0.1348,0.135,0.1351,0.1358,0.1355,0.1355,0.1364,0.1355,0.1354,0.1365,0.1379,0.1351,0.135,0.1364,0.1365,0.1366,0.1412,0,0,0,0,0,0,0.1326,0.1328,0.133,0.1336,0.1339,0.1354,0.135,0.1351,0.136,0.1361,0.136,0.1359,0.1355,0.1366,0.1365,0.1378,0.135,0.1363,0.1364,0.1365,0.141,0.1414,0.1418,0,0,0,0,0,0.1325,0.1328,0.133,0.1331,0.1341,0.1354,0.1356,0.1362,0.136,0.1368,0.1372,0.1359,0.1373,0.1367,0.1365,0.1378,0.1362,0.1364,0.1365,0.1408,0.1413,0.1418,0,0,0,0,0,0,0.132,0.1329,0.1331,0.1337,0.1349,0.1356,0.1362,0.1365,0.1374,0.1374,0.1369,0.1369,0.1383,0.1374,0.1367,0.1385,0.1365,0.1366,0.1397,0.1402,0.1407,0.1401,0.135,0,0,0,0,0,0.132,0.1324,0.1336,0.134,0.1347,0.1355,0.136,0.1366,0.1374,0.1378,0.1379,0.138,0.1386,0.139,0.139,0.14,0.1412,0.1406,0.141,0.1414,0.1408,0.1455,0.1463,0.1371,0.1371,0.1371,0,0,0.1318,0.1324,0.1326,0.134,0.1347,0.1361,0.1359,0.1371,0.1383,0.1375,0.139,0.1394,0.1392,0.1408,0.1413,0.1403,0.145,0.1416,0.142,0.1411,0.1457,0.1466,0.1475,0.1372,0.1372,0.1372,0,0,0.1318,0.1324,0.1328,0.1342,0.1358,0.1366,0.1372,0.1385,0.1393,0.1409,0.141,0.1424,0.1427,0.1435,0.1438,0.1464,0.1471,0.1464,0.1483,0.1529,0.1537,0.1545,0.1586,0.1596,0.1467,0.1468,0.1468,0,0.1315,0.1323,0.1333,0.1346,0.1356,0.137,0.1382,0.1395,0.1411,0.1419,0.1419,0.144,0.1439,0.1463,0.1476,0.1474,0.1502,0.1465,0.1536,0.1544,0.155,0.1591,0.1602,0.147,0.147,0.1469,0.1469,0,0.1321,0.133,0.1336,0.1356,0.137,0.1383,0.1404,0.142,0.143,0.1441,0.1466,0.1476,0.1487,0.1495,0.1493,0.1538,0.1545,0.1538,0.1526,0.1563,0.1602,0.1613,0.1473,0.1473,0.1472,0.1471,0,0,0.1302,0.1333,0.1335,0.1344,0.1376,0.1386,0.1413,0.1437,0.1452,0.1475,0.1497,0.1517,0.1524,0.1527,0.1534,0.1573,0.1651,0.1579,0.1581,0.1624,0.1762,0.1748,0.1759,0.1668,0.1669,0.1671,0.1776,0,0.1302,0.1321,0.134,0.136,0.1371,0.1398,0.1419,0.1445,0.1469,0.1496,0.1518,0.154,0.1537,0.155,0.159,0.163,0.1679,0.1623,0.1714,0.1716,0.1704,0.177,0.1645,0.1726,0.1786,0.1788,0.1789,0,0.13,0.1313,0.1328,0.1357,0.1365,0.138,0.1415,0.1439,0.1485,0.1505,0.1538,0.1557,0.1608,0.1603,0.1701,0.1671,0.1719,0.1753,0.1758,0.1733,0.1722,0.1695,0.1743,0.1807,0.1806,0.1804,0.1803,0,0.1273,0.1304,0.1312,0.1323,0.136,0.1371,0.1393,0.1436,0.1459,0.1514,0.1541,0.1596,0.1632,0.1699,0.176,0.1746,0.1873,0.186,0.1896,0.1895,0.1796,0.1784,0.1942,0.1941,0.1941,0.1941,0.1941,0,0.1262,0.1267,0.1298,0.1303,0.1315,0.135,0.1371,0.1404,0.1456,0.149,0.1542,0.1588,0.1662,0.1735,0.1787,0.1876,0.1898,0.1913,0.1928,0.1809,0.1798,0.1862,0.1851,0.1945,0.1944,0.1943,0.1942,0,0.1226,0.1248,0.1257,0.129,0.13,0.1307,0.1353,0.1373,0.143,0.1482,0.1504,0.16,0.1706,0.1775,0.1891,0.1911,0.1991,0.2016,0.1869,0.1865,0.1979,0.1969,0.2078,0.2079,0.2079,0.208,0.208,0,0.1208,0.1209,0.1236,0.124,0.1252,0.1272,0.1289,0.1348,0.1381,0.1492,0.152,0.1636,0.1724,0.1882,0.1943,0.204,0.2039,0.1957,0.1902,0.1993,0.1997,0.1986,0.1976,0.1796,0.1794,0.1792,0.1791,0,0.117,0.1178,0.1186,0.1198,0.121,0.1227,0.1262,0.1285,0.1368,0.1432,0.1539,0.1622,0.1782,0.1835,0.1943,0.1972,0.1927,0.1928,0.2076,0.1776,0.1734,0.1735,0.1733,0.1776,0.1778,0.1779,0.178,0.178,0.1135,0.1132,0.1145,0.1151,0.1166,0.1181,0.1192,0.125,0.131,0.1406,0.1507,0.1607,0.1688,0.1816,0.1806,0.1801,0.1934,0.1854,0.1856,0.1861,0.1805,0.1765,0.1803,0.1805,0.1806,0.1807,0.1808,0,0.1091,0.1096,0.11,0.111,0.1111,0.1136,0.1174,0.1191,0.1257,0.1371,0.1469,0.1445,0.1528,0.1592,0.1592,0.1632,0.1579,0.155,0.1463,0.1482,0.1498,0.1419,0.1317,0.1315,0.1313,0.1311,0,0,0.1068,0.1057,0.1062,0.1052,0.1062,0.1061,0.1077,0.1122,0.1197,0.1256,0.1314,0.1479,0.1581,0.1422,0.1431,0.1371,0.1399,0.1321,0.1728,0.1648,0.166,0.1707,0.1612,0,0,0,0,0]},{"header":{"parameterUnit":"m.s-1","parameterCategory":2,"la1":30.2991,"la2":30.254,"lo1":-89.0895,"lo2":-89.0444,"dy":0.0017,"dx":0.0017,"nx":28,"ny":28,"refTime":"2024-05-31T09:00:00:Z","depth":"2","parameterNumber":3,"parameterNumberName":"V-component_of_CURRENTS"},"data":[0,0,0,0,0,0,0,0,0,0,0,0,0,0,0,0,0,0,0,0,0,0,0,0,0,0,0,0,0,0,0,0,0,0,0,0,0,0,0,0,0,0,0,0,0,0,0,0,0,0,0,0,0,0,0,0,0,0,-0.0125,-0.0126,0,-0.0187,-0.0187,-0.0188,-0.0224,-0.0224,-0.0224,-0.0224,-0.0314,-0.0317,-0.0319,0,0,0,0,0,0,0,0,0,0,0,0,0,-0.007,-0.0071,-0.0125,-0.0126,-0.0126,-0.0187,-0.0187,-0.0188,-0.0224,-0.0224,-0.0224,-0.0224,-0.0314,-0.0316,-0.0319,0,0,0,0,0,0,0,0,0,0,0,0,0,-0.011,-0.0071,-0.0125,-0.0151,-0.0154,-0.0186,-0.0187,-0.0189,-0.0224,-0.0224,-0.0224,-0.0224,-0.0313,-0.0316,-0.0319,-0.0338,0,0,-0.033,-0.0332,0,0,0,0,0,0,0,0,-0.0107,-0.0112,-0.0146,-0.0149,-0.0152,-0.0197,-0.0201,-0.024,-0.0223,-0.0198,-0.0224,-0.0224,-0.0277,-0.0284,-0.0295,-0.0343,-0.0347,-0.033,-0.0333,-0.0334,-0.0335,0,0,0,0,0,0,0,-0.0104,-0.0109,-0.015,-0.0147,-0.0151,-0.0171,-0.0176,-0.0209,-0.0237,-0.02,-0.0202,-0.0208,-0.0279,-0.0292,-0.0298,-0.0348,-0.033,-0.0333,-0.0336,-0.0337,-0.0423,-0.0423,0,0,0,0,0,0,-0.0094,-0.0107,-0.0148,-0.0152,-0.0129,-0.0171,-0.0178,-0.0183,-0.0236,-0.0244,-0.0208,-0.021,-0.0286,-0.0294,-0.0301,-0.0324,-0.0334,-0.0337,-0.0339,-0.0423,-0.0423,-0.0423,0,0,0,0,0,0,-0.0093,-0.0097,-0.0145,-0.013,-0.0138,-0.0172,-0.0178,-0.0184,-0.0197,-0.0242,-0.0251,-0.0214,-0.0286,-0.0296,-0.0334,-0.0328,-0.0339,-0.0342,-0.0423,-0.0423,-0.0423,-0.0372,0,0,0,0,0,0,-0.0091,-0.0096,-0.0097,-0.0129,-0.0138,-0.016,-0.0178,-0.0185,-0.02,-0.0203,-0.025,-0.0259,-0.0287,-0.0329,-0.0337,-0.0333,-0.0345,-0.0422,-0.0423,-0.0423,-0.0374,-0.0371,-0.0368,0,0,0,0,0,-0.0089,-0.0088,-0.0097,-0.0102,-0.0138,-0.016,-0.0166,-0.0192,-0.02,-0.0204,-0.024,-0.0257,-0.0337,-0.0332,-0.0342,-0.0339,-0.0422,-0.0423,-0.0423,-0.0375,-0.0371,-0.0368,0,0,0,0,0,0,-0.0066,-0.0093,-0.0102,-0.0111,-0.0131,-0.0166,-0.0172,-0.0189,-0.022,-0.0223,-0.0265,-0.0276,-0.0306,-0.0332,-0.0325,-0.0365,-0.038,-0.0383,-0.034,-0.0337,-0.0335,-0.0309,-0.0348,0,0,0,0,0,-0.006,-0.0066,-0.0095,-0.0101,-0.0109,-0.0139,-0.0152,-0.0168,-0.0199,-0.0212,-0.0245,-0.0281,-0.0316,-0.0334,-0.0368,-0.0392,-0.0402,-0.0396,-0.0393,-0.039,-0.0377,-0.0393,-0.039,-0.0425,-0.0425,-0.0425,0,0,-0.0054,-0.0068,-0.0073,-0.0096,-0.0114,-0.0122,-0.0147,-0.0162,-0.0168,-0.0218,-0.0238,-0.0275,-0.0321,-0.0348,-0.0363,-0.0368,-0.0386,-0.0391,-0.0388,-0.0376,-0.0393,-0.0389,-0.0386,-0.0425,-0.0425,-0.0425,0,0,-0.004,-0.0055,-0.0054,-0.0068,-0.009,-0.0108,-0.011,-0.0141,-0.0155,-0.018,-0.0217,-0.025,-0.03,-0.033,-0.0352,-0.0356,-0.0372,-0.0368,-0.0331,-0.0346,-0.0343,-0.034,-0.0343,-0.0341,-0.0364,-0.0364,-0.0364,0,-0.0029,-0.0033,-0.0057,-0.0059,-0.0066,-0.0098,-0.0097,-0.0116,-0.0155,-0.0163,-0.0179,-0.0248,-0.0289,-0.0319,-0.0321,-0.0348,-0.0354,-0.0338,-0.0341,-0.0338,-0.0336,-0.034,-0.0338,-0.0361,-0.0362,-0.0362,-0.0362,0,-0.0017,-0.0019,-0.0019,-0.003,-0.0041,-0.0045,-0.0071,-0.0082,-0.01,-0.0121,-0.0151,-0.0206,-0.0243,-0.0263,-0.0294,-0.0303,-0.031,-0.0335,-0.0343,-0.0329,-0.0334,-0.0333,-0.0358,-0.0359,-0.0359,-0.036,0,0,0.0004,-0.0007,-0.0007,-0.0002,-0.0024,-0.0029,-0.0036,-0.005,-0.0049,-0.0087,-0.0089,-0.0151,-0.0174,-0.0201,-0.0244,-0.0258,-0.0254,-0.0283,-0.0285,-0.0273,-0.0273,-0.0294,-0.0295,-0.0277,-0.0276,-0.0276,-0.028,0,0.0023,0.0032,0.0019,0.003,0.0034,0.0011,0.001,-0.0007,-0.0026,-0.0037,-0.0085,-0.0109,-0.0152,-0.0169,-0.0189,-0.0242,-0.025,-0.025,-0.0298,-0.0299,-0.031,-0.0294,-0.0276,-0.0279,-0.0279,-0.0279,-0.0279,0,0.0039,0.0045,0.006,0.0067,0.0067,0.0068,0.0067,0.0061,0.0037,0.0023,-0.0004,-0.004,-0.0074,-0.0111,-0.0171,-0.0166,-0.0208,-0.0245,-0.0246,-0.028,-0.0318,-0.0296,-0.0278,-0.0278,-0.0278,-0.0278,-0.0278,0,0.0066,0.0075,0.0091,0.0091,0.009,0.0096,0.0095,0.008,0.0085,0.0063,0.0065,0.0017,-0.0005,-0.006,-0.0141,-0.015,-0.0201,-0.0229,-0.0282,-0.0283,-0.0284,-0.0286,-0.0257,-0.0257,-0.0257,-0.0257,-0.0257,0,0.009,0.0103,0.0105,0.0113,0.0138,0.0126,0.0146,0.0138,0.0135,0.0152,0.0099,0.0102,0.0009,-0.0037,-0.0111,-0.019,-0.0179,-0.0263,-0.0284,-0.0267,-0.0268,-0.0284,-0.0287,-0.0257,-0.0257,-0.0257,-0.0257,0,0.0112,0.0113,0.0134,0.0144,0.015,0.0165,0.0182,0.0196,0.0189,0.0211,0.021,0.017,0.0117,0.002,-0.0071,-0.015,-0.0229,-0.0261,-0.0228,-0.0246,-0.0304,-0.0304,-0.0307,-0.0307,-0.0308,-0.0309,-0.0309,0,0.0124,0.0136,0.0157,0.0173,0.0178,0.0199,0.0215,0.0219,0.0239,0.0257,0.0273,0.0235,0.0221,0.0075,-0.0069,-0.0192,-0.0221,-0.0271,-0.0292,-0.0287,-0.0308,-0.0308,-0.0307,-0.0269,-0.0269,-0.0269,-0.0269,0,0.0148,0.0152,0.0169,0.0202,0.0224,0.0253,0.0278,0.0308,0.0323,0.0358,0.0397,0.0397,0.026,0.0139,-0.0051,-0.0143,-0.0252,-0.0276,-0.0275,-0.0266,-0.0254,-0.0274,-0.0274,-0.0269,-0.0269,-0.0269,-0.0269,-0.0269,0.0163,0.0179,0.0199,0.0231,0.026,0.0303,0.0339,0.0385,0.0444,0.0515,0.0501,0.0521,0.0353,0.0136,-0.0049,-0.0248,-0.0239,-0.0307,-0.0305,-0.0304,-0.0306,-0.0297,-0.0319,-0.0319,-0.0319,-0.032,-0.032,0,0.0181,0.0198,0.0228,0.0266,0.0303,0.0316,0.0381,0.0431,0.0523,0.06,0.0654,0.0528,0.0385,0.0189,-0.0101,-0.0281,-0.0293,-0.0339,-0.0313,-0.0311,-0.031,-0.0311,-0.0326,-0.0327,-0.0327,-0.0328,0,0,0.019,0.0216,0.023,0.029,0.0325,0.0386,0.0432,0.0523,0.0596,0.0686,0.0722,0.0729,0.0477,0.0271,0.0018,-0.0153,-0.019,-0.0188,-0.0162,-0.0101,-0.0097,-0.0272,-0.027,0,0,0,0,0]}],[{"header":{"parameterUnit":"m.s-1","parameterCategory":2,"la1":30.2991,"la2":30.254,"lo1":-89.0895,"lo2":-89.0444,"dy":0.0017,"dx":0.0017,"nx":28,"ny":28,"refTime":"2024-05-31T09:00:00:Z","depth":"4","parameterNumber":2,"parameterNumberName":"U-component_of_CURRENTS"},"data":[0,0,0,0,0,0,0,0,0,0,0,0,0,0,0,0,0,0,0,0,0,0,0,0,0,0,0,0,0,0,0,0,0,0,0,0,0,0,0,0,0,0,0,0,0,0,0,0,0,0,0,0,0,0,0,0,0,0,0.0899,0.09,0,0.0909,0.0909,0.0909,0.0934,0.0935,0.0936,0.0936,0.0939,0.0939,0.0938,0,0,0,0,0,0,0,0,0,0,0,0,0,0.0858,0.0859,0.0899,0.09,0.09,0.0909,0.0909,0.0909,0.0934,0.0935,0.0936,0.0937,0.094,0.0939,0.0938,0,0,0,0,0,0,0,0,0,0,0,0,0,0.0871,0.0859,0.0899,0.0915,0.0917,0.0909,0.0909,0.0909,0.0934,0.0935,0.0936,0.0937,0.094,0.0939,0.0938,0.0909,0,0,0.0935,0.0935,0,0,0,0,0,0,0,0,0.087,0.0872,0.0913,0.0914,0.0916,0.0924,0.0896,0.091,0.0933,0.0925,0.0936,0.0938,0.0934,0.0934,0.093,0.091,0.091,0.0935,0.0934,0.0934,0.0934,0,0,0,0,0,0,0,0.0869,0.0871,0.0901,0.0913,0.0915,0.0908,0.0911,0.0898,0.0921,0.0925,0.0928,0.0933,0.0935,0.0931,0.093,0.091,0.0935,0.0934,0.0934,0.0933,0.0957,0.0958,0,0,0,0,0,0,0.0874,0.0871,0.09,0.0901,0.0898,0.0908,0.0911,0.0918,0.0921,0.0924,0.0932,0.0934,0.0932,0.0931,0.093,0.0975,0.0934,0.0933,0.0933,0.0956,0.0957,0.0959,0,0,0,0,0,0,0.0873,0.0877,0.09,0.0888,0.0891,0.0908,0.0915,0.0918,0.0938,0.0927,0.0929,0.0953,0.0932,0.0932,0.0943,0.0973,0.0933,0.0932,0.0954,0.0956,0.0958,0.1015,0,0,0,0,0,0,0.0872,0.0876,0.089,0.0889,0.0892,0.0912,0.0914,0.0917,0.0939,0.0943,0.0945,0.0945,0.0933,0.0945,0.0942,0.0971,0.0931,0.0953,0.0955,0.0957,0.1012,0.1019,0.1025,0,0,0,0,0,0.0871,0.0882,0.0891,0.0895,0.0908,0.0913,0.0914,0.0928,0.0939,0.095,0.0955,0.0946,0.0958,0.0944,0.0941,0.097,0.0952,0.0955,0.0957,0.1009,0.1017,0.1024,0,0,0,0,0,0,0.087,0.0886,0.0895,0.0911,0.0921,0.0919,0.0932,0.094,0.0951,0.0961,0.0951,0.0951,0.0974,0.0962,0.0948,0.0985,0.0957,0.0959,0.0997,0.1005,0.1011,0.1012,0.093,0,0,0,0,0,0.0876,0.0893,0.0902,0.0917,0.0925,0.0933,0.094,0.095,0.0956,0.0964,0.0966,0.0972,0.0977,0.0984,0.0981,0.0995,0.0993,0.1015,0.1022,0.1027,0.1027,0.1048,0.1057,0.0967,0.0967,0.0967,0,0,0.088,0.0892,0.0902,0.0919,0.0928,0.0939,0.094,0.096,0.0974,0.096,0.0986,0.099,0.0984,0.1005,0.1015,0.1003,0.1055,0.1031,0.1035,0.1032,0.1052,0.1061,0.1068,0.0969,0.0969,0.0969,0,0,0.0887,0.0908,0.0922,0.0934,0.0956,0.0958,0.097,0.0983,0.0999,0.1017,0.1018,0.1041,0.1044,0.1051,0.1052,0.1091,0.1085,0.11,0.1136,0.1157,0.1165,0.1171,0.1194,0.1202,0.1107,0.1107,0.1107,0,0.0893,0.0912,0.0926,0.0941,0.0955,0.0971,0.0985,0.0997,0.1014,0.103,0.1036,0.1065,0.1064,0.1091,0.1112,0.1105,0.1118,0.1107,0.1166,0.1172,0.1178,0.1199,0.1207,0.111,0.111,0.111,0.1109,0,0.0903,0.0926,0.0937,0.0962,0.0977,0.0994,0.1012,0.1036,0.1059,0.1071,0.1112,0.1117,0.1138,0.1149,0.1142,0.1189,0.1186,0.1169,0.1146,0.119,0.121,0.1217,0.1115,0.1114,0.1113,0.1112,0,0,0.0892,0.0936,0.0942,0.096,0.0992,0.1002,0.1034,0.1063,0.1092,0.112,0.1158,0.1182,0.1201,0.1204,0.121,0.1233,0.1292,0.1228,0.1227,0.1249,0.135,0.1294,0.1297,0.1291,0.1292,0.1293,0.1353,0,0.0898,0.0929,0.095,0.0982,0.0998,0.1029,0.1054,0.1086,0.1119,0.1159,0.1185,0.122,0.1217,0.1243,0.1268,0.1283,0.1312,0.1277,0.1304,0.1305,0.1249,0.1303,0.1297,0.1359,0.136,0.1361,0.1362,0,0.0897,0.0921,0.0954,0.0998,0.1009,0.1033,0.1086,0.1112,0.1168,0.1197,0.1244,0.1264,0.1314,0.1301,0.1356,0.1339,0.1354,0.1361,0.1363,0.1292,0.1262,0.1301,0.1375,0.1374,0.1373,0.1372,0.1371,0,0.0875,0.0921,0.095,0.0965,0.1015,0.1045,0.1077,0.1131,0.116,0.1232,0.1265,0.1318,0.1357,0.1382,0.1416,0.1393,0.1472,0.1435,0.1398,0.1394,0.1399,0.1392,0.1473,0.1473,0.1473,0.1473,0.1473,0,0.0862,0.0887,0.0948,0.0963,0.1001,0.1044,0.1092,0.1133,0.1196,0.1231,0.129,0.1327,0.1382,0.1432,0.1442,0.1455,0.1498,0.1414,0.1408,0.1424,0.1418,0.1405,0.1397,0.1475,0.1475,0.1474,0.1474,0,0.0829,0.087,0.0906,0.097,0.0992,0.1023,0.1093,0.1121,0.1193,0.1244,0.1271,0.1354,0.1419,0.147,0.1523,0.1487,0.1502,0.1496,0.1534,0.1527,0.1399,0.1393,0.1441,0.144,0.1438,0.1437,0.1436,0,0.0813,0.083,0.0903,0.0924,0.0958,0.101,0.1038,0.1112,0.114,0.1247,0.1262,0.1362,0.1409,0.1442,0.1501,0.1532,0.1514,0.1509,0.1426,0.1408,0.1398,0.1393,0.1389,0.1435,0.1434,0.1434,0.1434,0,0.0779,0.0816,0.0845,0.0892,0.093,0.0959,0.1011,0.102,0.1102,0.118,0.1225,0.1269,0.1349,0.1398,0.1453,0.1463,0.1499,0.1495,0.1496,0.1418,0.14,0.139,0.1387,0.1429,0.143,0.143,0.1431,0,0.0756,0.0769,0.0816,0.0847,0.089,0.0896,0.0926,0.096,0.0998,0.1108,0.1127,0.1237,0.133,0.1365,0.1409,0.143,0.1391,0.1326,0.1335,0.134,0.1282,0.1243,0.1229,0,0,0,0,0,0.0727,0.0736,0.0764,0.0792,0.0829,0.0854,0.09,0.093,0.1008,0.1011,0.1063,0.1131,0.1202,0.1265,0.1267,0.137,0.14,0.1366,0.1329,0.1406,0.1411,0.1354,0,0,0,0,0,0,0.0707,0.0735,0.0746,0.0738,0.0746,0.0775,0.0801,0.085,0.0853,0.0943,0.099,0.107,0.1161,0.1199,0.125,0.127,0.1224,0.1441,0.1438,0.1403,0.1408,0.1412,0.1355,0,0,0,0,0]},{"header":{"parameterUnit":"m.s-1","parameterCategory":2,"la1":30.2991,"la2":30.254,"lo1":-89.0895,"lo2":-89.0444,"dy":0.0017,"dx":0.0017,"nx":28,"ny":28,"refTime":"2024-05-31T09:00:00:Z","depth":"4","parameterNumber":3,"parameterNumberName":"V-component_of_CURRENTS"},"data":[0,0,0,0,0,0,0,0,0,0,0,0,0,0,0,0,0,0,0,0,0,0,0,0,0,0,0,0,0,0,0,0,0,0,0,0,0,0,0,0,0,0,0,0,0,0,0,0,0,0,0,0,0,0,0,0,0,0,-0.0097,-0.0098,0,-0.0136,-0.0137,-0.0137,-0.0164,-0.0165,-0.0165,-0.0165,-0.0229,-0.023,-0.0232,0,0,0,0,0,0,0,0,0,0,0,0,0,-0.0065,-0.0065,-0.0097,-0.0098,-0.0098,-0.0136,-0.0137,-0.0137,-0.0164,-0.0165,-0.0165,-0.0165,-0.0228,-0.023,-0.0232,0,0,0,0,0,0,0,0,0,0,0,0,0,-0.0089,-0.0065,-0.0097,-0.0116,-0.0118,-0.0136,-0.0137,-0.0137,-0.0164,-0.0165,-0.0165,-0.0165,-0.0228,-0.023,-0.0232,-0.024,0,0,-0.0239,-0.024,0,0,0,0,0,0,0,0,-0.0087,-0.009,-0.0113,-0.0115,-0.0117,-0.0146,-0.0149,-0.0173,-0.0164,-0.0147,-0.0165,-0.0165,-0.0203,-0.0207,-0.0214,-0.0243,-0.0245,-0.0239,-0.024,-0.0241,-0.0242,0,0,0,0,0,0,0,-0.0086,-0.0089,-0.0113,-0.0114,-0.0116,-0.0129,-0.0133,-0.0153,-0.0173,-0.0148,-0.0151,-0.0155,-0.0204,-0.0211,-0.0215,-0.0246,-0.0239,-0.0241,-0.0242,-0.0243,-0.0314,-0.0314,0,0,0,0,0,0,-0.008,-0.0087,-0.0112,-0.0114,-0.0103,-0.013,-0.0134,-0.0136,-0.0173,-0.0178,-0.0154,-0.0156,-0.0207,-0.0213,-0.0218,-0.0245,-0.0241,-0.0244,-0.0245,-0.0313,-0.0314,-0.0315,0,0,0,0,0,0,-0.0079,-0.0081,-0.011,-0.0101,-0.0106,-0.013,-0.0133,-0.0137,-0.0148,-0.0177,-0.0183,-0.0161,-0.0208,-0.0215,-0.024,-0.0247,-0.0245,-0.0247,-0.0313,-0.0314,-0.0314,-0.0289,0,0,0,0,0,0,-0.0078,-0.0081,-0.0082,-0.0101,-0.0106,-0.012,-0.0133,-0.0138,-0.015,-0.0152,-0.0185,-0.0191,-0.0209,-0.0237,-0.0242,-0.025,-0.0248,-0.0312,-0.0313,-0.0314,-0.0289,-0.0288,-0.0288,0,0,0,0,0,-0.0076,-0.0076,-0.0081,-0.0085,-0.0106,-0.012,-0.0124,-0.0142,-0.015,-0.0153,-0.0177,-0.019,-0.0247,-0.0239,-0.0245,-0.0254,-0.0312,-0.0313,-0.0314,-0.0289,-0.0288,-0.0288,0,0,0,0,0,0,-0.0063,-0.0079,-0.0086,-0.009,-0.0103,-0.0124,-0.0129,-0.0141,-0.0162,-0.0167,-0.0194,-0.0202,-0.0229,-0.0245,-0.0235,-0.0278,-0.0283,-0.0285,-0.0261,-0.0261,-0.0261,-0.0253,-0.025,0,0,0,0,0,-0.0059,-0.0063,-0.008,-0.0084,-0.0089,-0.0109,-0.0118,-0.0129,-0.0149,-0.0159,-0.0182,-0.021,-0.0239,-0.0252,-0.0278,-0.0297,-0.031,-0.0309,-0.0308,-0.0308,-0.0307,-0.0344,-0.0347,-0.0319,-0.0319,-0.0319,0,0,-0.0056,-0.0064,-0.0067,-0.0081,-0.0093,-0.0099,-0.0115,-0.0126,-0.0133,-0.0163,-0.0181,-0.021,-0.0245,-0.0269,-0.0283,-0.0283,-0.0319,-0.0309,-0.0308,-0.0308,-0.0346,-0.0348,-0.0351,-0.0319,-0.0319,-0.0319,0,0,-0.0047,-0.0057,-0.0057,-0.0066,-0.0081,-0.0093,-0.0095,-0.0116,-0.0128,-0.0147,-0.0176,-0.0208,-0.0241,-0.0271,-0.029,-0.0304,-0.0318,-0.0312,-0.0301,-0.0337,-0.034,-0.0342,-0.0341,-0.0344,-0.0309,-0.0309,-0.0309,0,-0.0042,-0.0045,-0.0059,-0.0061,-0.0067,-0.0088,-0.0089,-0.0103,-0.0131,-0.0142,-0.0149,-0.0214,-0.0243,-0.0282,-0.0288,-0.0303,-0.0312,-0.0297,-0.0336,-0.0339,-0.0342,-0.034,-0.0343,-0.0308,-0.0308,-0.0309,-0.0309,0,-0.0036,-0.0038,-0.0038,-0.0047,-0.0055,-0.006,-0.0078,-0.009,-0.0106,-0.0123,-0.0162,-0.0203,-0.024,-0.0259,-0.0277,-0.0315,-0.031,-0.0332,-0.0333,-0.0343,-0.034,-0.0344,-0.0307,-0.0307,-0.0307,-0.0308,0,0,-0.0025,-0.0032,-0.0033,-0.0032,-0.0048,-0.0052,-0.0064,-0.0082,-0.0089,-0.0123,-0.0138,-0.0197,-0.0219,-0.0243,-0.0275,-0.0308,-0.0332,-0.0324,-0.0326,-0.0314,-0.0384,-0.0342,-0.0342,-0.0361,-0.0362,-0.0363,-0.0366,0,-0.0016,-0.0013,-0.002,-0.0018,-0.0019,-0.0037,-0.0044,-0.0063,-0.0082,-0.01,-0.015,-0.0175,-0.0212,-0.0226,-0.0269,-0.0318,-0.0345,-0.0328,-0.0384,-0.0385,-0.0341,-0.0346,-0.0366,-0.0368,-0.0369,-0.037,-0.037,0,-0.001,-0.0007,-0.0002,-0.0003,-0.0004,-0.0005,-0.0019,-0.0027,-0.0058,-0.0072,-0.0111,-0.014,-0.0191,-0.022,-0.0305,-0.029,-0.0335,-0.0372,-0.0374,-0.0348,-0.0351,-0.0364,-0.0377,-0.0377,-0.0376,-0.0376,-0.0375,0,0.0002,0.0005,0.0012,0.001,0.0006,0.0005,0.0001,-0.0021,-0.0019,-0.0051,-0.0049,-0.0118,-0.0133,-0.0216,-0.0278,-0.0297,-0.0358,-0.0395,-0.0397,-0.0393,-0.0441,-0.0439,-0.046,-0.046,-0.046,-0.046,-0.046,0,0.0012,0.0017,0.002,0.0023,0.0034,0.0023,0.0031,0.0017,0.001,0.0023,-0.0031,-0.0028,-0.0135,-0.0175,-0.0258,-0.0318,-0.0342,-0.039,-0.0398,-0.0426,-0.0423,-0.0442,-0.0439,-0.046,-0.046,-0.046,-0.046,0,0.0021,0.0022,0.0033,0.0036,0.0041,0.0047,0.0061,0.0068,0.006,0.0079,0.0078,0.0043,-0.0004,-0.0094,-0.0202,-0.0267,-0.0346,-0.0363,-0.0346,-0.0352,-0.0363,-0.036,-0.0378,-0.0377,-0.0376,-0.0375,-0.0374,0,0.0026,0.0032,0.0046,0.0059,0.0063,0.0075,0.0087,0.0088,0.0106,0.0129,0.0145,0.0123,0.0089,-0.0009,-0.0127,-0.0259,-0.0291,-0.0324,-0.0391,-0.0353,-0.0358,-0.0357,-0.0355,-0.0372,-0.0372,-0.0372,-0.0372,0,0.0034,0.004,0.005,0.0077,0.0095,0.0119,0.0142,0.0167,0.0184,0.0183,0.0221,0.0174,0.0133,0.0025,-0.0057,-0.0168,-0.0306,-0.0314,-0.0319,-0.0382,-0.0346,-0.0352,-0.0352,-0.0368,-0.0368,-0.0369,-0.0369,0,0.0041,0.0051,0.0067,0.0092,0.0121,0.016,0.017,0.0207,0.0229,0.0262,0.0279,0.0228,0.0197,0.0075,-0.0011,-0.01,-0.0154,-0.021,-0.0222,-0.0228,-0.0194,-0.0127,-0.0083,0,0,0,0,0,0.0046,0.0059,0.0083,0.0115,0.0147,0.0165,0.0207,0.0218,0.0248,0.0288,0.0289,0.0255,0.0154,0.0105,0.0023,-0.003,-0.0191,-0.0132,-0.0267,-0.0346,-0.0351,-0.0336,0,0,0,0,0,0,0.0048,0.0068,0.0082,0.0131,0.0158,0.0197,0.0227,0.0249,0.0271,0.0294,0.0245,0.0226,0.0121,0.0207,0.0022,-0.0006,-0.0106,-0.0182,-0.0184,-0.0344,-0.0348,-0.0351,-0.0338,0,0,0,0,0]}]]